GAOFEN 13 02

导读 | 星芒AI

高分十三号02星是中国研制的一颗高分辨率对地观测卫星,主要用于国土普查、环境监测、灾害预警等领域。该卫星具备高精度成像能力和稳定的运行性能,能够提供高质量的遥感数据。作为高分系列的重要成员,02星在提升我国遥感技术水平和应用能力方面发挥着重要作用,为国家资源管理、城市规划和应急响应等提供有力支持。

基本信息
目录编号:
55912
目录名称:
GAOFEN 13 02
国际标识:
2023-036A
轨道中心:
EARTH
卫星名称:
GAOFEN 13 02
卫星全名:
--
卫星状态:
在轨 (已飞行957 天)
发射日期:
2023-03-17 UTC
国别 :
中国 (CN)
星等 :
--
轨道信息
数据来源 国际轨道数据 AOE轨道数据
星历时间 2025-10-28T19:55:39+0800
18小时前
查看轨道信息
2025-10-28T21:00:00+0800
17小时前
查看轨道信息
半长轴 42164.504km 42164.448km
偏心率 0.000302 0.0003014
轨道倾角 1.135° 1.135°
近地点辐角 332.638° 332.893°
升交点赤经 333.113° 333.173°
平近点角 58.557° 74.377°
近地点 35773.635km 35773.604km
远地点 35799.103km 35799.022km
周期 1436.085分钟 1436.082分钟
每日圈数 1.002726 1.002728
详细信息
使用方式:
暂无
2D轨道图
3D轨道图
轨道高度分析图
轨道倾角分析图
轨道综合分析图
查看轨道综合分析图